TimeEST,TemperatureF,Dew PointF,Humidity,Sea Level PressureIn,VisibilityMPH,Wind Direction,Wind SpeedMPH,Gust SpeedMPH,PrecipitationIn,Events,Conditions,WindDirDegrees,DateUTC
12:52 AM,46.0,36.0,68,30.16,10.0,Calm,Calm,-,N/A,,Clear,0,2012-11-20 05:52:00
1:52 AM,42.1,36.0,79,30.15,10.0,WSW,5.8,-,N/A,,Mostly Cloudy,250,2012-11-20 06:52:00
3:52 AM,46.0,36.0,68,30.11,10.0,WSW,3.5,-,N/A,,Clear,240,2012-11-20 08:52:00
4:52 AM,45.0,36.0,71,30.12,10.0,West,5.8,-,N/A,,Clear,260,2012-11-20 09:52:00
5:52 AM,43.0,36.0,76,30.14,10.0,West,5.8,-,N/A,,Clear,260,2012-11-20 10:52:00
6:52 AM,43.0,36.0,76,30.14,10.0,WSW,5.8,-,N/A,,Clear,240,2012-11-20 11:52:00
7:52 AM,44.1,35.1,71,30.16,10.0,WSW,5.8,-,N/A,,Clear,250,2012-11-20 12:52:00
8:52 AM,46.9,37.0,68,30.15,10.0,West,3.5,-,N/A,,Clear,260,2012-11-20 13:52:00
9:52 AM,46.9,37.0,68,30.16,10.0,WSW,3.5,-,N/A,,Scattered Clouds,240,2012-11-20 14:52:00
10:52 AM,48.9,37.0,64,30.14,10.0,WSW,5.8,-,N/A,,Mostly Cloudy,250,2012-11-20 15:52:00
11:52 AM,51.1,34.0,52,30.12,10.0,West,6.9,-,N/A,,Partly Cloudy,270,2012-11-20 16:52:00
12:52 PM,54.0,30.9,41,30.09,10.0,West,10.4,-,N/A,,Mostly Cloudy,280,2012-11-20 17:52:00
1:52 PM,54.0,27.0,35,30.08,10.0,WNW,9.2,-,N/A,,Clear,290,2012-11-20 18:52:00
2:52 PM,57.0,26.1,30,30.06,10.0,WNW,8.1,-,N/A,,Clear,290,2012-11-20 19:52:00
3:52 PM,57.0,23.0,27,30.06,10.0,WNW,8.1,-,N/A,,Clear,300,2012-11-20 20:52:00
4:52 PM,55.0,23.0,29,30.06,10.0,NW,4.6,-,N/A,,Clear,310,2012-11-20 21:52:00
6:52 PM,48.9,25.0,39,30.10,10.0,Calm,Calm,-,N/A,,Clear,0,2012-11-20 23:52:00
7:52 PM,48.0,24.1,39,30.11,10.0,Calm,Calm,-,N/A,,Clear,0,2012-11-21 00:52:00
8:52 PM,46.9,25.0,42,30.11,10.0,WSW,4.6,-,N/A,,Clear,240,2012-11-21 01:52:00
9:52 PM,48.0,25.0,41,30.12,10.0,Calm,Calm,-,N/A,,Clear,0,2012-11-21 02:52:00
10:52 PM,45.0,25.0,46,30.12,10.0,WSW,3.5,-,N/A,,Clear,240,2012-11-21 03:52:00
11:52 PM,46.0,25.0,44,30.11,10.0,WSW,4.6,-,N/A,,Clear,240,2012-11-21 04:52:00